Location: ??????
(30.5519°N, 47.7720°E)
Time: 16:44:02
(UTC+00:00)

CZ-2C R/B - Pass Details

Date: 24 January 2021
Orbit: 704 x 908 km, 98.1° (Epoch: 01 March)

Event Time Altitude Azimuth Distance (km) Brightness Sun altitude
Rises 14:41:48 0° 146° (SE) 3,256 6.1 -5.6°
Reaches altitude 10° 14:44:12 10° 138° (SE) 2,362 5.3 -6.1°
Maximum altitude 14:49:00 38° 72° (ENE) 1,243 3.6 -7.1°
Drops below altitude 10° 14:54:05 10° 6° (N) 2,495 5.4 -8.1°
Sets 14:56:40 0° 358° (N) 3,463 6.2 -8.6°
